Weather History for Bennington, VT

Change the Weather History Date:

Wednesday, August 13, 2014

  Actual Average Record
Temperature  
Mean Temperature 67 °F 67 °F  
Max Temperature 72 °F 78 °F 90 °F (2002)
Min Temperature 62 °F 56 °F 41 °F (2006)
Degree Days  
Heating Degree Days 0 1  
Month to date heating degree days 6 13  
Since 1 June heating degree days 64 134  
Since 1 July heating degree days 17 37  
Cooling Degree Days 2 3  
Month to date cooling degree days 28 51  
Year to date cooling degree days 230 246  
Since 1 June cooling degree days 214 232  
Growing Degree Days 18 (Base 50)    
Moisture  
Dew Point 62 °F    
Average Humidity 81    
Maximum Humidity 93    
Minimum Humidity 68    
Precipitation  
Precipitation 0.22 in 0.12 in 1.92 in (2013)
Month to date precipitation 0.90 1.83  
Year to date precipitation 25.01 25.37  
Sea Level Pressure  
Sea Level Pressure 29.74 in    
Wind  
Wind Speed 8 mph (SE)    
Max Wind Speed 23 mph    
Max Gust Speed 32 mph    
Visibility 8 miles    
Events Rain    
T = Trace of Precipitation, MM = Missing Value Source: NWS Daily Summary

Daily Weather History Graph

Daily Weather History Graph

Search for Another Location

Airport:

Trip Planner

Search our weather history database for the weather conditions in past years. The results will help you decide how hot, cold, wet, or windy it might be!

Date:

Astronomy

Aug. 13, 2014 Rise Set
Actual Time 5:56 AM EDT 7:58 PM EDT
Civil Twilight 5:26 AM EDT 8:28 PM EDT
Nautical Twilight 4:48 AM EDT 9:06 PM EDT
Astronomical Twilight 4:06 AM EDT 9:47 PM EDT
Moon 9:34 PM EDT (8/13) 9:28 AM EDT (8/13)
Length of Visible Light 15h 02m
Length of Day
14h 01m
Waning Gibbous, 88% of the Moon is Illuminated
Aug 13
Waning Gibbous
Aug 17
Last Quarter
Aug 25
New
Sep 2
First Quarter
Sep 8
Full

Hourly Weather History & Observations

Time (EDT) Temp. Dew Point Humidity Pressure Visibility Wind Dir Wind Speed Gust Speed Precip Events Conditions
12:54 AM 72.0 °F 60.1 °F 66% 29.91 in 10.0 mi SE 15.0 mph 26.5 mph N/A   Overcast
1:54 AM 71.1 °F 61.0 °F 70% 29.88 in 10.0 mi SSE 18.4 mph 25.3 mph N/A   Overcast
2:54 AM 71.1 °F 61.0 °F 70% 29.87 in 8.0 mi SE 15.0 mph 24.2 mph N/A   Overcast
3:54 AM 70.0 °F 61.0 °F 73% 29.84 in 10.0 mi SE 13.8 mph 26.5 mph 0.00 in   Mostly Cloudy
4:54 AM 70.0 °F 59.0 °F 68% 29.82 in 10.0 mi SE 17.3 mph 29.9 mph N/A   Mostly Cloudy
5:54 AM 70.0 °F 60.1 °F 71% 29.80 in 10.0 mi SSE 12.7 mph 19.6 mph N/A   Scattered Clouds
6:03 AM 70.0 °F 60.1 °F 71% 29.83 in 10.0 mi SSE 10.4 mph 24.2 mph N/A   Mostly Cloudy
6:54 AM 69.1 °F 60.1 °F 73% 29.82 in 10.0 mi SSE 13.8 mph - N/A   Mostly Cloudy
11:08 AM 64.9 °F 63.0 °F 93% 29.77 in 1.8 mi West 5.8 mph - 0.05 in Rain Rain
11:14 AM 66.0 °F 63.0 °F 90% 29.76 in 3.0 mi Variable 4.6 mph - 0.05 in Rain Light Rain
11:44 AM 66.0 °F 63.0 °F 90% 29.76 in 5.0 mi NW 3.5 mph - 0.07 in Rain Light Rain
11:54 AM 66.0 °F 63.0 °F 90% 29.75 in 7.0 mi Variable 4.6 mph - 0.08 in Rain Light Rain
12:17 PM 68.0 °F 62.1 °F 81% 29.75 in 10.0 mi SE 8.1 mph - 0.00 in Rain Light Rain
12:54 PM 70.0 °F 62.1 °F 76% 29.73 in 10.0 mi Variable 4.6 mph - 0.00 in   Overcast
1:02 PM 69.1 °F 61.0 °F 75% 29.73 in 10.0 mi Variable 6.9 mph - 0.01 in Rain Light Rain
1:31 PM 70.0 °F 61.0 °F 73% 29.72 in 10.0 mi Variable 5.8 mph 18.4 mph 0.01 in Rain Light Rain
1:54 PM 71.1 °F 61.0 °F 70% 29.69 in 10.0 mi East 8.1 mph - 0.01 in   Mostly Cloudy
2:13 PM 70.0 °F 60.1 °F 71% 29.71 in 10.0 mi East 8.1 mph 19.6 mph N/A   Mostly Cloudy
2:49 PM 69.8 °F 60.8 °F 73% 29.70 in 10.0 mi East 8.1 mph 16.1 mph N/A   Overcast
2:54 PM 69.1 °F 59.0 °F 70% 29.69 in 10.0 mi ESE 4.6 mph - N/A   Overcast
3:54 PM 69.1 °F 59.0 °F 70% 29.67 in 10.0 mi Calm Calm - N/A   Overcast
4:46 PM 68.0 °F 61.0 °F 78% 29.69 in 10.0 mi WNW 5.8 mph - N/A   Overcast
4:54 PM 66.9 °F 62.1 °F 84% 29.68 in 5.0 mi NW 4.6 mph - 0.00 in Rain Light Rain
5:28 PM 66.0 °F 62.1 °F 87% 29.70 in 10.0 mi NW 3.5 mph - 0.00 in   Overcast
5:33 PM 66.0 °F 62.1 °F 87% 29.70 in 10.0 mi NW 3.5 mph - 0.00 in   Overcast
5:43 PM 66.0 °F 63.0 °F 90% 29.70 in 2.5 mi Variable 5.8 mph - 0.01 in Rain Light Rain
5:50 PM 64.4 °F 62.6 °F 94% 29.70 in 1.2 mi NE 4.6 mph - 0.04 in Rain Rain
5:54 PM 64.9 °F 63.0 °F 93% 29.69 in 1.2 mi Variable 3.5 mph - 0.04 in Rain Light Rain
6:21 PM 64.9 °F 62.1 °F 90% 29.71 in 10.0 mi NNW 3.5 mph - 0.01 in   Overcast
6:45 PM 64.9 °F 62.1 °F 90% 29.71 in 2.5 mi Calm Calm - 0.01 in Rain Light Rain
6:48 PM 64.4 °F 62.6 °F 94% 29.71 in 6.0 mi Calm Calm - 0.02 in Rain Light Rain
6:54 PM 64.0 °F 62.1 °F 93% 29.70 in 10.0 mi Calm Calm - 0.02 in   Overcast
7:19 PM 64.0 °F 62.1 °F 93% 29.72 in 9.0 mi Calm Calm - 0.00 in   Overcast
7:24 PM 64.0 °F 62.1 °F 93% 29.72 in 8.0 mi WSW 3.5 mph - 0.00 in   Overcast
7:54 PM 64.9 °F 62.1 °F 90% 29.71 in 7.0 mi Variable 3.5 mph - 0.01 in Rain Light Rain
8:39 PM 64.0 °F 62.1 °F 93% 29.73 in 10.0 mi Calm Calm - 0.00 in   Overcast
8:54 PM 64.0 °F 62.1 °F 93% 29.73 in 10.0 mi WNW 3.5 mph - 0.00 in   Overcast
9:54 PM 64.0 °F 62.1 °F 93% 29.73 in 10.0 mi Variable 3.5 mph - N/A   Overcast